NANOSATC-BR1

Last updated on Thu Nov 21 2024 00:03:39 GMT+0000 (Coordinated Universal Time)

1 40024U 14033Q 24325.40301730 .00017644 00000+0 10916-2 0 9995 2 40024 98.0810 304.8153 0006854 28.6533 331.5070 15.09871273566764
UTC large
Height (km)
Speed (km/s)
/
Latitude / Longitude
Inclination (degrees)
Orbital Period (minutes)
Azimuth
Elevation
Range (km)
Doppler Factor

Next 0 passes for location: London (51.5072 / 0.1276)

Sorry there are no passes over London.